This is the latest recevied weather packets stored in our database for station/object WZ8H. If no packets are shown the sender has not sent any weather packets the latest 10 day(s).
| Time | Temp. | Humidity | Pressure | Rain* | Wind** | Luminosity | Snow |
|---|---|---|---|---|---|---|---|
| 1777982978 | 16.11° C | 80% | 1004.3 hPa | 0 mm | - | 116 W/m² | - |
| 1777982674 | 16.11° C | 79% | 1004.3 hPa | 0 mm | - | 102 W/m² | - |
| 1777982349 | 16.11° C | 79% | 1004 hPa | 0 mm | - | 93 W/m² | - |
| 1777982021 | 16.11° C | 79% | 1003.9 hPa | 0 mm | - | 76 W/m² | - |
| 1777981719 | 16.11° C | 78% | 1003.7 hPa | 0 mm | - | 70 W/m² | - |
| 1777981422 | 16.11° C | 78% | 1003.3 hPa | 0 mm | - | 56 W/m² | - |
| 1777981091 | 16.11° C | 78% | 1003.1 hPa | 0 mm | - | 37 W/m² | - |
| 1777980765 | 16.11° C | 77% | 1003 hPa | 0 mm | - | 28 W/m² | - |
| 1777980440 | 16.11° C | 77% | 1003 hPa | 0 mm | - | 23 W/m² | - |
| 1777980111 | 16.11° C | 77% | 1002.8 hPa | 0 mm | - | 23 W/m² | - |
| 1777979810 | 16.11° C | 77% | 1002.5 hPa | 0 mm | - | 21 W/m² | - |
| 1777979482 | 16.11° C | 77% | 1002.5 hPa | 0 mm | - | 23 W/m² | - |
| 1777979185 | 16.11° C | 78% | 1002.5 hPa | 0 mm | - | 21 W/m² | - |
| 1777978875 | 16.11° C | 78% | 1002.4 hPa | 0 mm | - | 19 W/m² | - |
| 1777978574 | 16.11° C | 78% | 1002.4 hPa | 0 mm | - | 16 W/m² | - |
| 1777978246 | 16.11° C | 78% | 1002.4 hPa | 0 mm | - | 12 W/m² | - |
| 1777977950 | 16.11° C | 78% | 1002.4 hPa | 0 mm | - | 9 W/m² | - |
| 1777977615 | 16.11° C | 78% | 1002.3 hPa | 0 mm | - | 5 W/m² | - |
| 1777977289 | 16.11° C | 78% | 1002.2 hPa | 0 mm | - | 0 W/m² | - |
| 1777976987 | 16.11° C | 78% | 1002.2 hPa | 0 mm | - | 0 W/m² | - |
| 1777976748 | 16.67° C | 77% | 1002.4 hPa | 0 mm | - | 0 W/m² | - |
| 1777976358 | 16.67° C | 76% | 1002.3 hPa | 0 mm | - | 0 W/m² | - |
| 1777976035 | 16.67° C | 76% | 1002.2 hPa | 0 mm | - | 0 W/m² | - |
| 1777975707 | 16.67° C | 76% | 1002.3 hPa | 0 mm | - | 0 W/m² | - |
| 1777975379 | 16.67° C | 76% | 1002.3 hPa | 0 mm | - | 0 W/m² | - |
* Rain latest hour (hover to see other rain measurements)
** Current wind speed in m/s (hover to see current wind gust speed)